TimeEDT,TemperatureF,Dew PointF,Humidity,Sea Level PressureIn,VisibilityMPH,Wind Direction,Wind SpeedMPH,Gust SpeedMPH,PrecipitationIn,Events,Conditions,WindDirDegrees,DateUTC
12:53 AM,75.0,73.9,96,29.94,10.0,NE,8.1,-,N/A,,Clear,50,2012-10-15 04:53:00
1:53 AM,75.0,73.9,96,29.93,10.0,NE,6.9,-,N/A,,Clear,40,2012-10-15 05:53:00
2:53 AM,73.9,73.9,100,29.91,9.0,NE,4.6,-,N/A,,Clear,50,2012-10-15 06:53:00
3:35 AM,75.2,75.2,100,29.90,8.0,NNE,5.8,-,N/A,,Scattered Clouds,30,2012-10-15 07:35:00
3:45 AM,75.2,75.2,100,29.89,8.0,NNE,6.9,-,N/A,,Mostly Cloudy,30,2012-10-15 07:45:00
3:53 AM,75.0,75.0,100,29.89,8.0,NNE,6.9,-,N/A,,Mostly Cloudy,30,2012-10-15 07:53:00
4:53 AM,75.0,75.0,100,29.87,7.0,ENE,8.1,-,N/A,,Overcast,60,2012-10-15 08:53:00
5:53 AM,73.9,73.9,100,29.87,4.0,NE,6.9,-,N/A,,Overcast,50,2012-10-15 09:53:00
6:53 AM,73.9,73.9,100,29.88,4.0,NE,8.1,-,N/A,,Overcast,50,2012-10-15 10:53:00
7:44 AM,73.4,73.4,100,29.88,2.0,NE,8.1,-,N/A,,Overcast,40,2012-10-15 11:44:00
7:53 AM,73.9,73.9,100,29.88,2.0,NE,6.9,-,N/A,,Overcast,40,2012-10-15 11:53:00
8:12 AM,75.2,75.2,100,29.89,3.0,NE,9.2,-,N/A,,Overcast,40,2012-10-15 12:12:00
8:53 AM,75.0,75.0,100,29.90,6.0,ENE,6.9,-,N/A,,Overcast,60,2012-10-15 12:53:00
9:36 AM,77.0,75.2,94,29.91,9.0,ENE,5.8,-,N/A,,Overcast,70,2012-10-15 13:36:00
9:53 AM,79.0,77.0,94,29.91,7.0,Variable,6.9,-,N/A,,Mostly Cloudy,0,2012-10-15 13:53:00
10:16 AM,80.6,75.2,84,29.92,10.0,ENE,6.9,-,N/A,,Mostly Cloudy,70,2012-10-15 14:16:00
10:53 AM,84.0,75.9,76,29.91,10.0,NE,6.9,-,N/A,,Mostly Cloudy,50,2012-10-15 14:53:00
11:53 AM,87.1,75.0,67,29.91,10.0,Calm,Calm,-,N/A,,Mostly Cloudy,0,2012-10-15 15:53:00
12:53 PM,88.0,73.9,63,29.89,10.0,NNE,6.9,-,N/A,,Mostly Cloudy,30,2012-10-15 16:53:00
1:00 PM,89.6,73.4,59,29.89,10.0,North,5.8,-,N/A,,Mostly Cloudy,360,2012-10-15 17:00:00
1:53 PM,87.1,75.9,69,29.86,10.0,WNW,8.1,-,N/A,,Partly Cloudy,300,2012-10-15 17:53:00
2:53 PM,84.9,75.9,74,29.83,10.0,West,15.0,-,N/A,,Scattered Clouds,270,2012-10-15 18:53:00
3:53 PM,84.9,77.0,77,29.82,10.0,WNW,13.8,-,N/A,,Partly Cloudy,300,2012-10-15 19:53:00
4:53 PM,84.0,75.0,74,29.81,10.0,NW,17.3,23.0,N/A,,Clear,310,2012-10-15 20:53:00
5:53 PM,81.0,73.9,79,29.80,10.0,North,6.9,-,N/A,,Partly Cloudy,360,2012-10-15 21:53:00
6:53 PM,80.1,73.0,79,29.80,10.0,Calm,Calm,-,N/A,,Clear,0,2012-10-15 22:53:00
7:53 PM,80.1,73.9,81,29.81,10.0,Calm,Calm,-,N/A,,Overcast,0,2012-10-15 23:53:00
8:53 PM,79.0,73.9,84,29.84,10.0,Calm,Calm,-,N/A,,Partly Cloudy,0,2012-10-16 00:53:00
9:53 PM,79.0,73.9,84,29.84,10.0,Calm,Calm,-,N/A,,Clear,0,2012-10-16 01:53:00
10:53 PM,78.1,73.9,87,29.86,10.0,North,4.6,-,N/A,,Clear,360,2012-10-16 02:53:00
11:53 PM,78.1,73.9,87,29.85,10.0,Calm,Calm,-,N/A,,Partly Cloudy,0,2012-10-16 03:53:00